Location: Trois-Rivi�res
(46.3500°N, 72.5500°W)
Time: 02:12:37
(UTC-04:00)

OTV 5 (USA 277) - Pass Details

Date: 11 October 2017
Orbit: 404 x 417 km, 43.0° (Epoch: 07 September)

Event Time Altitude Azimuth Distance (km) Brightness Sun altitude
Rises 20:29:43 0° 249° (WSW) 2,351 ? -24.6°
Reaches altitude 10° 20:31:54 10° 242° (WSW) 1,489 ? -25.0°
Enters shadow 20:33:03 19° 233° (SW) 1,062 ? -25.2°
